This is the latest recevied weather packets stored in our database for station/object KK7KHO. If no packets are shown the sender has not sent any weather packets the latest 10 day(s).
| Time | Temp. | Humidity | Pressure | Rain* | Wind** | Luminosity | Snow |
|---|---|---|---|---|---|---|---|
| 1777217127 | 9.44° C | 67% | 1009.1 hPa | 0 mm | - | 209 W/m² | - |
| 1777216824 | 9.44° C | 68% | 1009.2 hPa | 0 mm | - | 195 W/m² | - |
| 1777216520 | 8.89° C | 69% | 1008.9 hPa | 0 mm | - | 183 W/m² | - |
| 1777216216 | 8.33° C | 70% | 1009.1 hPa | 0 mm | - | 169 W/m² | - |
| 1777215909 | 7.78° C | 70% | 1009.1 hPa | 0 mm | - | 158 W/m² | - |
| 1777215606 | 7.78° C | 70% | 1009.3 hPa | 0 mm | - | 146 W/m² | - |
| 1777215301 | 7.78° C | 71% | 1009.2 hPa | 0 mm | - | 134 W/m² | - |
| 1777214997 | 7.22° C | 71% | 1009.2 hPa | 0 mm | - | 124 W/m² | - |
| 1777214697 | 7.22° C | 73% | 1009.3 hPa | 0 mm | - | 113 W/m² | - |
| 1777214391 | 6.67° C | 74% | 1009.1 hPa | 0 mm | - | 102 W/m² | - |
| 1777214090 | 6.67° C | 74% | 1009.1 hPa | 0 mm | - | 92 W/m² | - |
| 1777213785 | 6.67° C | 74% | 1009.3 hPa | 0 mm | - | 84 W/m² | - |
| 1777213481 | 6.67° C | 75% | 1008.9 hPa | 0 mm | - | 74 W/m² | - |
| 1777213179 | 6.67° C | 75% | 1009 hPa | 0 mm | - | 66 W/m² | - |
| 1777212875 | 6.11° C | 76% | 1009.1 hPa | 0 mm | - | 58 W/m² | - |
| 1777212573 | 6.11° C | 77% | 1008.9 hPa | 0 mm | - | 52 W/m² | - |
| 1777212271 | 5.56° C | 77% | 1008.9 hPa | 0 mm | - | 45 W/m² | - |
| 1777211966 | 5.56° C | 78% | 1008.9 hPa | 0 mm | - | 39 W/m² | - |
| 1777211661 | 5° C | 80% | 1008.6 hPa | 0 mm | - | 32 W/m² | - |
| 1777211356 | 5° C | 80% | 1008.8 hPa | 0 mm | - | 25 W/m² | - |
| 1777211052 | 5° C | 81% | 1008.6 hPa | 0 mm | - | 23 W/m² | - |
| 1777210749 | 5° C | 80% | 1008.6 hPa | 0 mm | - | 21 W/m² | - |
| 1777210443 | 5° C | 80% | 1008.5 hPa | 0 mm | - | 18 W/m² | - |
| 1777210140 | 5° C | 80% | 1008.5 hPa | 0 mm | - | 16 W/m² | - |
| 1777209836 | 5° C | 79% | 1008.1 hPa | 0 mm | - | 13 W/m² | - |
* Rain latest hour (hover to see other rain measurements)
** Current wind speed in m/s (hover to see current wind gust speed)